Flag for Germany Weather past 2 weeks in Kaufbeuren, Bavaria, Germany

Now
63 °F

Mild.


Feels Like: 63 °F
Forecast: 61 / 86 °F
Wind: 5 mph from Southwest

Location: Altenstadt Airport

Current Time: Aug 30, 2015 at 3:51:12 AM

Latest Report: Aug 30, 2015 at 3:20 AM


Visibility: N/A

Pressure: 30.18 "Hg (27.81 "Hg at 693m altitude)

Humidity: 88%

Dew point: 59 °F

Location of KaufbeurenLocation

Historic Weather in Kaufbeuren — Graph

°F

Kaufbeuren temperature yesterday

Maximum temperature yesterday: 82 °F (at 3:20 PM)
Minimum temperature yesterday: 57 °F (at 4:20 AM)
Average temperature yesterday: 70 °F

Past Weeks' High & Low Weather Summary

 TemperatureHumidityPressure
High82 °F (Aug 27, 4:20 PM)100% (Aug 15, 2:20 AM)30.30 "Hg (Aug 15, 2:20 AM)
Low45 °F (Aug 21, 4:20 AM)34% (Aug 27, 1:20 PM)29.77 "Hg (Aug 24, 9:20 AM)
Average60 °F79%30.06 "Hg
* Reported Aug 15 2:20 AM — Aug 30 2:20 AM, Kaufbeuren, Weather by CustomWeather, © 2015

Note: Actual official high and low records may vary slightly from our data, if they occured in-between our weather recording intervals... More about our weather records

Advertising

Kaufbeuren weather history for previous 24 hours

 ConditionsComfort  
Time TempWeatherWind HumidityBarometerVisibility
2:20 AM
Sun, Aug 30
63 °FMild.3 mph88%30.18 "HgN/A
1:20 AM66 °FMild.2 mph78%30.18 "HgN/A
12:20 AM66 °FMild.6 mph78%30.18 "HgN/A
11:20 PM
Sat, Aug 29
66 °FMild.1 mph78%30.18 "HgN/A
10:20 PM70 °FMild.1 mph69%30.18 "HgN/A
9:20 PM72 °FMild.3 mph69%30.18 "HgN/A
8:20 PM75 °FMild.5 mph61%30.18 "HgN/A
7:20 PM75 °FMild.8 mph65%30.18 "HgN/A
6:20 PM81 °FWarm.10 mph54%30.18 "HgN/A
5:20 PM82 °FWarm.13 mph45%30.21 "HgN/A
4:20 PM82 °FWarm.12 mph45%30.21 "HgN/A
3:20 PM82 °FWarm.9 mph51%30.24 "HgN/A
2:20 PM81 °FWarm.8 mph54%30.24 "HgN/A
1:20 PM79 °FWarm.9 mph54%30.27 "HgN/A
11:20 AM73 °FMild.7 mph61%30.27 "HgN/A
10:20 AM72 °FMild.7 mph65%30.27 "HgN/A
9:20 AM68 °FMild.5 mph73%30.27 "HgN/A
7:20 AM61 °FCool.No wind94%30.27 "HgN/A
6:20 AM57 °FCool.2 mph94%30.27 "HgN/A
5:20 AM59 °FCool.No wind94%30.27 "HgN/A
4:20 AM57 °FCool.1 mph88%30.27 "HgN/A
3:20 AM61 °FCool.2 mph88%30.24 "HgN/A
Weather by CustomWeather, © 2015

See weather overviewHow to use our weather pages